Tracking 21607 objects as of 23-Oct-2020
HD Live streaming from Space Station
objects crossing your sky now

COSMOS 87

Track COSMOS 87 now!
10-day predictions
COSMOS 87 is classified as:


NORAD ID: 1585
Int'l Code: 1965-073B
Perigee: 1,322.3 km
Apogee: 1,642.6 km
Inclination: 56.1 °
Period: 115.4 minutes
Semi major axis: 7853 km
RCS: 0.3642 m2 (medium)
Launch date: September 18, 1965
Source: Commonwealth of Independent States (former USSR) (CIS)
Launch site: TYURATAM MISSILE AND SPACE COMPLEX (TTMTR)
aabbcc
Your satellite tracking list
Your tracking list is empty




NASA's NSSDC Master Catalog

Two Line Element Set (TLE):
1  1585U 65073B   20296.64852444 -.00000113 +00000-0 -11295-3 0  9994
2  1585 056.0611 069.6329 0203928 137.4008 237.3091 12.47428080508444
Source of the keplerian elements: AFSPC